H1 CPF 2 NER 2020 11 2 9 307 01 glonass142 H2 2001801 9142 45358 2020 11 2 0 0 0 2020 11 5 23 45 0 900 1 1 0 0 0 1 H9 10 0 59155 0.00000 0 -24116288.260 4313834.182 -7042625.895 10 0 59155 900.00000 0 -23071109.774 4095622.765 -10033354.666 10 0 59155 1800.00000 0 -21718584.806 3657608.139 -12828751.595 10 0 59155 2700.00000 0 -20110105.011 2969414.931 -15374369.813 10 0 59155 3600.00000 0 -18304244.348 2011701.440 -17620630.282 10 0 59155 4500.00000 0 -16364343.248 777237.333 -19523794.933 10 0 59155 5400.00000 0 -14355911.200 -728533.442 -21046823.731 10 0 59155 6300.00000 0 -12343957.384 -2487469.769 -22160098.652 10 0 59155 7200.00000 0 -10390361.953 -4469252.451 -22842000.331 10 0 59155 8100.00000 0 -8551398.413 -6632424.291 -23079326.382 10 0 59155 9000.00000 0 -6875510.834 -8925908.152 -22867543.641 10 0 59155 9900.00000 0 -5401438.570 -11290939.723 -22210869.878 10 0 59155 10800.00000 0 -4156766.121 -13663334.378 -21122184.007 10 0 59155 11700.00000 0 -3156957.612 -15975993.544 -19622767.067 10 0 59155 12600.00000 0 -2404914.823 -18161545.928 -17741879.580 10 0 59155 13500.00000 0 -1891075.494 -20155013.452 -15516183.997 10 0 59155 14400.00000 0 -1594045.827 -21896390.800 -12989023.863 10 0 59155 15300.00000 0 -1481738.722 -23333031.115 -10209574.198 10 0 59155 16200.00000 0 -1512967.974 -24421738.647 -7231879.941 10 0 59155 17100.00000 0 -1639429.634 -25130481.560 -4113801.504 10 0 59155 18000.00000 0 -1807985.586 -25439653.967 -915888.300 10 0 59155 18900.00000 0 -1963151.891 -25342835.393 2299797.574 10 0 59155 19800.00000 0 -2049686.020 -24847016.833 5470884.519 10 0 59155 20700.00000 0 -2015163.287 -23972285.034 8535897.944 10 0 59155 21600.00000 0 -1812433.484 -22750979.084 11435446.839 10 0 59155 22500.00000 0 -1401854.015 -21226355.433 14113367.753 10 0 59155 23400.00000 0 -753205.442 -19450817.576 16517804.380 10 0 59155 24300.00000 0 152791.217 -17483784.606 18602202.680 10 0 59155 25200.00000 0 1323419.356 -15389287.614 20326203.191 10 0 59155 26100.00000 0 2753418.476 -13233393.534 21656414.164 10 0 59155 27000.00000 0 4424966.368 -11081563.040 22567051.597 10 0 59155 27900.00000 0 6308193.641 -8996051.386 23040434.616 10 0 59155 28800.00000 0 8362210.457 -7033459.191 23067327.269 10 0 59155 29700.00000 0 10536604.373 -5242533.816 22647120.388 10 0 59155 30600.00000 0 12773348.785 -3662311.638 21787849.986 10 0 59155 31500.00000 0 15009044.348 -2320677.671 20506051.281 10 0 59155 32400.00000 0 17177401.899 -1233401.744 18826450.409 10 0 59155 33300.00000 0 19211865.061 -403691.041 16781498.574 10 0 59155 34200.00000 0 21048264.320 177722.469 14410756.390 10 0 59155 35100.00000 0 22627392.608 531963.396 11760138.984 10 0 59155 36000.00000 0 23897394.982 690888.901 8881035.196 10 0 59155 36900.00000 0 24815872.092 695506.418 5829317.017 10 0 59155 37800.00000 0 25351608.624 593999.779 2664257.822 10 0 59155 38700.00000 0 25485853.158 439447.273 -552619.897 10 0 59155 39600.00000 0 25213094.496 287328.577 -3758744.597 10 0 59155 40500.00000 0 24541300.609 192926.903 -6891719.701 10 0 59155 41400.00000 0 23491609.126 208737.513 -9890546.893 10 0 59155 42300.00000 0 22097481.569 381993.791 -12696823.689 10 0 59155 43200.00000 0 20403356.461 752417.241 -15255890.875 10 0 59155 44100.00000 0 18462857.809 1350288.353 -17517906.405 10 0 59155 45000.00000 0 16336634.460 2194921.536 -19438823.835 10 0 59155 45900.00000 0 14089921.446 3293610.108 -20981255.614 10 0 59155 46800.00000 0 11789926.089 4641087.166 -22115204.048 10 0 59155 47700.00000 0 9503148.938 6219526.110 -22818645.558 10 0 59155 48600.00000 0 7292751.984 7999081.638 -23077957.060 10 0 59155 49500.00000 0 5216084.260 9938949.081 -22888176.530 10 0 59155 50400.00000 0 3322468.037 11988897.951 -22253093.153 10 0 59155 51300.00000 0 1651337.410 14091215.639 -21185165.908 10 0 59155 52200.00000 0 230805.943 16182979.977 -19705272.714 10 0 59155 53100.00000 0 -923278.159 18198565.490 -17842295.582 10 0 59155 54000.00000 0 -1807751.606 20072278.538 -15632550.336 10 0 59155 54900.00000 0 -2432014.764 21741011.134 -13119072.425 10 0 59155 55800.00000 0 -2817376.718 23146802.482 -10350773.165 10 0 59155 56700.00000 0 -2995896.255 24239201.303 -7381483.180 10 0 59155 57600.00000 0 -3008769.502 24977330.414 -4268901.973 10 0 59155 58500.00000 0 -2904333.829 25331567.589 -1073474.442 10 0 59155 59400.00000 0 -2735773.567 25284772.904 2142783.535 10 0 59155 60300.00000 0 -2558625.513 24833011.953 5317487.524 10 0 59155 61200.00000 0 -2428190.176 23985745.377 8389091.422 10 0 59155 62100.00000 0 -2396958.450 22765477.477 11298075.513 10 0 59155 63000.00000 0 -2512162.446 21206879.220 13988093.018 10 0 59155 63900.00000 0 -2813553.666 19355422.638 16407053.280 10 0 59155 64800.00000 0 -3331502.056 17265583.880 18508121.452 10 0 59155 65700.00000 0 -4085495.826 14998689.635 20250616.203 10 0 59155 66600.00000 0 -5083105.151 12620496.246 21600789.005 10 0 59155 67500.00000 0 -6319453.582 10198601.408 22532470.942 10 0 59155 68400.00000 0 -7777220.060 7799794.945 23027575.375 10 0 59155 69300.00000 0 -9427172.469 5487457.548 23076447.367 10 0 59155 70200.00000 0 -11229211.886 3319114.218 22678053.452 10 0 59155 71100.00000 0 -13133885.607 1344242.665 21840008.014 10 0 59155 72000.00000 0 -15084307.610 -397573.314 20578435.316 10 0 59155 72900.00000 0 -17018408.168 -1878069.657 18917669.040 10 0 59155 73800.00000 0 -18871420.432 -3081248.397 16889793.997 10 0 59155 74700.00000 0 -20578501.432 -4003805.384 14534037.616 10 0 59155 75600.00000 0 -22077378.923 -4655021.766 11896021.633 10 0 59155 76500.00000 0 -23310913.744 -5056123.765 9026887.189 10 0 59155 77400.00000 0 -24229470.179 -5239137.553 5982309.340 10 0 59155 78300.00000 0 -24792994.289 -5245287.450 2821419.400 10 0 59155 79200.00000 0 -24972711.924 -5123005.116 -394344.269 10 0 59155 80100.00000 0 -24752373.680 -4925634.178 -3602434.432 10 0 59155 81000.00000 0 -24128993.064 -4708928.047 -6740418.323 10 0 59155 81900.00000 0 -23113045.360 -4528447.823 -9747201.497 10 0 59155 82800.00000 0 -21728117.683 -4436971.685 -12564227.215 10 0 59155 83700.00000 0 -20010024.024 -4482026.945 -15136626.904 10 0 59155 84600.00000 0 -18005421.902 -4703650.798 -17414298.196 10 0 59155 85500.00000 0 -15769988.600 -5132476.020 -19352888.563 10 0 59156 0.00000 0 -13366233.570 -5788223.932 -20914664.702 10 0 59156 900.00000 0 -10861038.847 -6678669.948 -22069250.516 10 0 59156 1800.00000 0 -8323031.030 -7799125.068 -22794218.809 10 0 59156 2700.00000 0 -5819895.004 -9132458.017 -23075525.774 10 0 59156 3600.00000 0 -3415741.351 -10649655.488 -22907779.929 10 0 59156 4500.00000 0 -1168637.747 -12310898.606 -22294340.761 10 0 59156 5400.00000 0 871593.484 -14067109.917 -21247245.764 10 0 59156 6300.00000 0 2665220.580 -15861906.187 -19786967.834 10 0 59156 7200.00000 0 4184014.510 -17633874.908 -17942008.291 10 0 59156 8100.00000 0 5412170.799 -19319078.973 -15748333.964 10 0 59156 9000.00000 0 6346704.375 -20853684.409 -13248669.693 10 0 59156 9900.00000 0 6997302.969 -22176600.914 -10491660.492 10 0 59156 10800.00000 0 7385647.417 -23232024.516 -7530920.036 10 0 59156 11700.00000 0 7544229.564 -23971775.891 -4423984.282 10 0 59156 12600.00000 0 7514719.357 -24357336.455 -1231191.030 10 0 59156 13500.00000 0 7345951.712 -24361497.252 1985492.597 10 0 59156 14400.00000 0 7091619.310 -23969551.968 5163671.782 10 0 59156 15300.00000 0 6807769.628 -23179984.483 8241731.220 10 0 59156 16200.00000 0 6550212.469 -22004622.802 11160024.670 10 0 59156 17100.00000 0 6371947.550 -20468253.166 13862024.033 10 0 59156 18000.00000 0 6320720.607 -18607710.754 16295406.117 10 0 59156 18900.00000 0 6436810.848 -16470485.050 18413056.840 10 0 59156 19800.00000 0 6751142.605 -14112897.730 20173974.321 10 0 59156 20700.00000 0 7283800.372 -11597928.494 21544054.287 10 0 59156 21600.00000 0 8043009.576 -8992778.316 22496743.645 10 0 59156 22500.00000 0 9024626.141 -6366270.250 23013550.423 10 0 59156 23400.00000 0 10212156.826 -3786194.413 23084400.858 10 0 59156 24300.00000 0 11577310.533 -1316705.888 22707837.075 10 0 59156 25200.00000 0 13081058.866 984117.975 21891051.504 10 0 59156 26100.00000 0 14675163.170 3066460.673 20649756.921 10 0 59156 27000.00000 0 16304105.915 4890600.568 19007893.838 10 0 59156 27900.00000 0 17907347.360 6428320.417 16997179.783 10 0 59156 28800.00000 0 19421814.473 7663834.174 14656507.924 10 0 59156 29700.00000 0 20784519.007 8594192.766 12031205.324 10 0 59156 30600.00000 0 21935195.644 9229151.967 9172163.900 10 0 59156 31500.00000 0 22818849.543 9590507.864 6134859.994 10 0 59156 32400.00000 0 23388105.867 9710927.863 2978280.811 10 0 59156 33300.00000 0 23605261.568 9632326.503 -236221.714 10 0 59156 34200.00000 0 23443951.734 9403854.860 -3446127.160 10 0 59156 35100.00000 0 22890358.861 9079588.992 -6588969.209 10 0 59156 36000.00000 0 21943912.449 8716015.989 -9603559.990 10 0 59156 36900.00000 0 20617447.993 8369425.050 -12431191.177 10 0 59156 37800.00000 0 18936817.351 8093315.322 -15016787.395 10 0 59156 38700.00000 0 16939965.868 7935931.590 -17309988.357 10 0 59156 39600.00000 0 14675514.411 7938033.477 -19266137.666 10 0 59156 40500.00000 0 12200905.498 8130993.794 -20847158.343 10 0 59156 41400.00000 0 9580191.123 8535307.541 -22022297.626 10 0 59156 42300.00000 0 6881555.071 9159575.331 -22768726.344 10 0 59156 43200.00000 0 4174673.403 10000004.802 -23071981.372 10 0 59156 44100.00000 0 1528023.428 11040451.353 -22926242.864 10 0 59156 45000.00000 0 -993746.598 12252996.633 -22334441.360 10 0 59156 45900.00000 0 -3332277.749 13599040.394 -21308193.215 10 0 59156 46800.00000 0 -5437688.832 15030859.631 -19867566.209 10 0 59156 47700.00000 0 -7270402.666 16493569.201 -18040680.424 10 0 59156 48600.00000 0 -8802535.450 17927401.242 -15863152.683 10 0 59156 49500.00000 0 -10018793.003 19270207.379 -13377395.792 10 0 59156 50400.00000 0 -10916838.254 20460078.315 -10631786.651 10 0 59156 51300.00000 0 -11507116.801 21437970.607 -7679719.837 10 0 59156 52200.00000 0 -11812150.006 22150230.213 -4578565.348 10 0 59156 53100.00000 0 -11865327.346 22550906.782 -1388551.225 10 0 59156 54000.00000 0 -11709250.738 22603761.651 1828406.998 10 0 59156 54900.00000 0 -11393702.107 22283885.394 5009907.057 10 0 59156 55800.00000 0 -10973321.125 21578857.426 8094267.486 10 0 59156 56700.00000 0 -10505091.816 20489399.259 11021718.569 10 0 59156 57600.00000 0 -10045744.362 19029494.195 13735553.903 10 0 59156 58500.00000 0 -9649181.781 17225968.692 16183220.710 10 0 59156 59400.00000 0 -9364039.589 15117552.642 18317328.486 10 0 59156 60300.00000 0 -9231480.847 12753457.461 20096557.408 10 0 59156 61200.00000 0 -9283318.854 10191530.717 21486449.834 10 0 59156 62100.00000 0 -9540545.969 7496062.970 22460070.567 10 0 59156 63000.00000 0 -10012330.175 4735336.750 22998524.037 10 0 59156 63900.00000 0 -10695521.576 1979018.047 23091318.986 10 0 59156 64800.00000 0 -11574690.064 -704503.040 22736574.018 10 0 59156 65700.00000 0 -12622693.437 -3250713.830 21941060.008 10 0 59156 66600.00000 0 -13801753.393 -5601416.189 20720078.115 10 0 59156 67500.00000 0 -15064995.747 -7706899.467 19097175.028 10 0 59156 68400.00000 0 -16358391.914 -9527759.937 17103699.799 10 0 59156 69300.00000 0 -17623021.658 -11036291.682 14778209.629 10 0 59156 70200.00000 0 -18797563.398 -12217391.387 12165734.737 10 0 59156 71100.00000 0 -19820908.338 -13068939.397 9316915.254 10 0 59156 72000.00000 0 -20634788.789 -13601641.032 6287025.900 10 0 59156 72900.00000 0 -21186309.943 -13838334.756 3134906.619 10 0 59156 73800.00000 0 -21430277.693 -13812796.263 -78180.431 10 0 59156 74700.00000 0 -21331223.212 -13568088.929 -3289745.107 10 0 59156 75600.00000 0 -20865037.407 -13154530.584 -6437291.076 10 0 59156 76500.00000 0 -20020144.604 -12627363.101 -9459540.576 10 0 59156 77400.00000 0 -18798164.250 -12044224.161 -12297637.180 10 0 59156 78300.00000 0 -17214031.153 -11462529.247 -14896302.057 10 0 59156 79200.00000 0 -15295567.796 -10936875.815 -17204920.116 10 0 59156 80100.00000 0 -13082525.670 -10516580.675 -19178533.860 10 0 59156 81000.00000 0 -10625135.176 -10243455.887 -20778724.915 10 0 59156 81900.00000 0 -7982224.401 -10149918.121 -21974365.650 10 0 59156 82800.00000 0 -5218985.467 -10257512.074 -22742226.030 10 0 59156 83700.00000 0 -2404481.728 -10575910.706 -23067424.069 10 0 59156 84600.00000 0 391000.113 -11102434.655 -22943711.404 10 0 59156 85500.00000 0 3098642.493 -11822111.001 -22373588.881 10 0 59157 0.00000 0 5653722.192 -12708268.587 -21368250.517 10 0 59157 900.00000 0 7998059.266 -13723644.645 -19947357.257 10 0 59157 1800.00000 0 10082188.796 -14821955.055 -18138645.974 10 0 59157 2700.00000 0 11867165.113 -15949862.436 -15977381.189 10 0 59157 3600.00000 0 13325926.067 -17049258.004 -13505661.125 10 0 59157 4500.00000 0 14444160.853 -18059761.070 -10771591.817 10 0 59157 5400.00000 0 15220647.693 -18921330.477 -7828345.812 10 0 59157 6300.00000 0 15667049.106 -19576877.818 -4733124.091 10 0 59157 7200.00000 0 15807175.409 -19974772.277 -1546041.803 10 0 59157 8100.00000 0 15675749.374 -20071131.663 1671040.227 10 0 59157 9000.00000 0 15316725.700 -19831803.278 4855715.350 10 0 59157 9900.00000 0 14781237.457 -19233951.548 7946238.823 10 0 59157 10800.00000 0 14125257.020 -18267185.821 10882720.100 10 0 59157 11700.00000 0 13407070.619 -16934181.147 13608276.841 10 0 59157 12600.00000 0 12684672.991 -15250765.935 16070128.692 10 0 59157 13500.00000 0 12013191.692 -13245472.607 18220610.365 10 0 59157 14400.00000 0 11442449.059 -10958569.666 20018085.367 10 0 59157 15300.00000 0 11014763.614 -8440614.713 21427743.553 10 0 59157 16200.00000 0 10763082.647 -5750587.699 22422268.116 10 0 59157 17100.00000 0 10709523.804 -2953680.640 22982360.012 10 0 59157 18000.00000 0 10864386.485 -118834.110 23097110.293 10 0 59157 18900.00000 0 11225674.513 2683878.976 22764213.544 10 0 59157 19800.00000 0 11779150.415 5385915.487 21990018.330 10 0 59157 20700.00000 0 12498919.774 7922861.238 20789413.229 10 0 59157 21600.00000 0 13348522.132 10236860.808 19185549.952 10 0 59157 22500.00000 0 14282483.962 12278778.263 17209407.767 10 0 59157 23400.00000 0 15248269.749 14009999.655 14899206.462 10 0 59157 24300.00000 0 16188550.391 15403802.745 12299677.804 10 0 59157 25200.00000 0 17043694.440 16446236.950 9461208.378 10 0 59157 26100.00000 0 17754377.749 17136476.615 6438869.356 10 0 59157 27000.00000 0 18264201.619 17486632.649 3291351.326 10 0 59157 27900.00000 0 18522208.447 17521030.239 79824.431 10 0 59157 28800.00000 0 18485187.757 17274982.927 -3133253.825 10 0 59157 29700.00000 0 18119673.788 16793114.827 -6285359.502 10 0 59157 30600.00000 0 17403548.639 16127302.146 -9315127.355 10 0 59157 31500.00000 0 16327181.442 15334321.544 -12163555.184 10 0 59157 32400.00000 0 14894053.729 14473305.600 -14775162.913 10 0 59157 33300.00000 0 13120842.923 13603113.938 -17099082.697 10 0 59157 34200.00000 0 11036959.071 12779732.218 -19090057.825 10 0 59157 35100.00000 0 8683553.187 12053809.921 -20709330.248 10 0 59157 36000.00000 0 6112037.988 11468441.793 -21925399.017 10 0 59157 36900.00000 0 3382182.571 11057287.234 -22714634.618 10 0 59157 37800.00000 0 559860.442 10843107.308 -23061737.384 10 0 59157 38700.00000 0 -2285455.219 10836781.057 -22960031.357 10 0 59157 39600.00000 0 -5083344.588 11036842.338 -22411588.309 10 0 59157 40500.00000 0 -7765132.129 11429556.144 -21427180.083 10 0 59157 41400.00000 0 -10266503.693 11989530.517 -20026060.720 10 0 59157 42300.00000 0 -12529941.229 12680837.432 -18235583.192 10 0 59157 43200.00000 0 -14506874.554 13458594.612 -16090658.681 10 0 59157 44100.00000 0 -16159461.599 14270940.772 -13633069.404 10 0 59157 45000.00000 0 -17461924.182 15061320.332 -10910648.804 10 0 59157 45900.00000 0 -18401385.210 15770980.617 -7976345.424 10 0 59157 46800.00000 0 -18978174.094 16341575.807 -4887189.050 10 0 59157 47700.00000 0 -19205589.501 16717767.480 -1703179.624 10 0 59157 48600.00000 0 -19109131.232 16849711.897 1513879.176 10 0 59157 49500.00000 0 -18725235.345 16695329.166 4701578.862 10 0 59157 50400.00000 0 -18099567.176 16222258.721 7798114.069 10 0 59157 51300.00000 0 -17284945.183 15409418.884 10743476.158 10 0 59157 52200.00000 0 -16338983.806 14248104.987 13480609.634 10 0 59157 53100.00000 0 -15321554.753 12742579.865 15956509.335 10 0 59157 54000.00000 0 -14292173.491 10910131.735 18123237.903 10 0 59157 54900.00000 0 -13307420.353 8780596.537 19938844.732 10 0 59157 55800.00000 0 -12418503.920 6395363.966 21368169.529 10 0 59157 56700.00000 0 -11669068.088 3805907.546 22383515.965 10 0 59157 57600.00000 0 -11093333.887 1071898.471 22965183.276 10 0 59157 58500.00000 0 -10714653.253 -1741019.925 23101846.182 10 0 59157 59400.00000 0 -10544534.842 -4563706.447 22790776.208 10 0 59157 60300.00000 0 -10582182.503 -7326144.259 22037900.116 10 0 59157 61200.00000 0 -10814565.952 -9960103.931 20857693.954 10 0 59157 62100.00000 0 -11217021.191 -12401738.388 19272914.044 10 0 59157 63000.00000 0 -11754356.270 -14594003.310 17314168.998 10 0 59157 63900.00000 0 -12382416.959 -16488803.181 15019339.867 10 0 59157 64800.00000 0 -13050047.451 -18048774.237 12432858.261 10 0 59157 65700.00000 0 -13701364.468 -19248630.128 9604855.132 10 0 59157 66600.00000 0 -14278249.481 -20076013.889 6590195.725 10 0 59157 67500.00000 0 -14722954.084 -20531820.278 3447418.618 10 0 59157 68400.00000 0 -14980708.208 -20629974.577 237599.072 10 0 59157 69300.00000 0 -15002220.168 -20396676.795 -2976841.095 10 0 59157 70200.00000 0 -14745961.617 -19869142.943 -6133353.537 10 0 59157 71100.00000 0 -14180139.229 -19093896.507 -9170488.834 10 0 59157 72000.00000 0 -13284267.959 -18124682.537 -12029102.399 10 0 59157 72900.00000 0 -12050277.564 -17020093.012 -14653516.268 10 0 59157 73800.00000 0 -10483103.803 -15841004.561 -16992613.104 10 0 59157 74700.00000 0 -8600737.829 -14647937.646 -19000840.006 10 0 59157 75600.00000 0 -6433730.251 -13498449.578 -20639101.936 10 0 59157 76500.00000 0 -4024169.579 -12444672.134 -21875526.852 10 0 59157 77400.00000 0 -1424177.200 -11531098.226 -22686087.442 10 0 59157 78300.00000 0 1306018.716 -10792711.095 -23055067.455 10 0 59157 79200.00000 0 4100350.145 -10253534.829 -22975363.840 10 0 59157 80100.00000 0 6889422.519 -9925666.786 -22448619.235 10 0 59157 81000.00000 0 9603169.745 -9808831.983 -21485182.776 10 0 59157 81900.00000 0 12173540.562 -9890477.206 -20103900.516 10 0 59157 82800.00000 0 14537104.570 -10146399.820 -18331740.114 10 0 59157 83700.00000 0 16637469.911 -10541883.537 -16203257.581 10 0 59157 84600.00000 0 18427412.672 -11033292.143 -13759916.927 10 0 59157 85500.00000 0 19870630.109 -11570052.837 -11049276.419 10 0 59158 0.00000 0 20943045.902 -12096944.614 -8124057.748 10 0 59158 900.00000 0 21633614.184 -12556594.118 -5041116.173 10 0 59158 1800.00000 0 21944590.912 -12892073.595 -1860333.068 10 0 59158 2700.00000 0 21891261.867 -13049489.848 1356548.589 10 0 59158 3600.00000 0 21501141.672 -12980455.862 4547122.020 10 0 59158 4500.00000 0 20812677.914 -12644339.903 7649524.643 10 0 59158 5400.00000 0 19873516.717 -12010197.722 10603632.900 10 0 59158 6300.00000 0 18738403.212 -11058306.375 13352220.979 10 0 59158 7200.00000 0 17466805.578 -9781235.062 15842061.357 10 0 59158 8100.00000 0 16120362.658 -8184407.915 18024946.605 10 0 59158 9000.00000 0 14760261.869 -6286134.585 19858613.576 10 0 59158 9900.00000 0 13444656.749 -4117106.743 21307552.956 10 0 59158 10800.00000 0 12226231.443 -1719380.390 22343689.584 10 0 59158 11700.00000 0 11150013.063 855114.997 22946921.253 10 0 59158 12600.00000 0 10251522.538 3546480.012 23105506.246 10 0 59158 13500.00000 0 9555340.416 6289084.276 22816292.542 10 0 59158 14400.00000 0 9074146.998 9014049.766 22084784.286 10 0 59158 15300.00000 0 8808276.695 11651877.205 20925043.878 10 0 59158 16200.00000 0 8745805.245 14135108.179 19359430.861 10 0 59158 17100.00000 0 8863166.505 16400913.849 17418181.585 10 0 59158 18000.00000 0 9126273.466 18393503.548 15138836.561 10 0 59158 18900.00000 0 9492097.114 20066253.677 12565525.262 10 0 59158 19800.00000 0 9910637.341 21383468.305 9748120.877 10 0 59158 20700.00000 0 10327203.367 22321697.726 6741280.439 10 0 59158 21600.00000 0 10684907.691 22870559.412 3603388.113 10 0 59158 22500.00000 0 10927268.003 23033026.364 395421.777 10 0 59158 23400.00000 0 11000806.471 22825170.128 -2820234.985 10 0 59158 24300.00000 0 10857535.366 22275368.883 -5981011.962 10 0 59158 25200.00000 0 10457222.433 21423013.638 -9025378.024 10 0 59158 26100.00000 0 9769338.454 20316767.127 -11894048.513 10 0 59158 27000.00000 0 8774602.797 19012449.097 -14531149.730 10 0 59158 27900.00000 0 7466059.724 17570637.728 -16885316.776 10 0 59158 28800.00000 0 5849638.311 16054089.062 -18910702.303 10 0 59158 29700.00000 0 3944170.755 14525084.002 -20567875.811 10 0 59158 30600.00000 0 1780866.958 13042815.366 -21824595.506 10 0 59158 31500.00000 0 -597733.524 11660925.584 -22656437.412 10 0 59158 32400.00000 0 -3139289.010 10425298.914 -23047269.599 10 0 59158 33300.00000 0 -5783599.294 9372200.939 -22989562.558 10 0 59158 34200.00000 0 -8464884.295 8526843.176 -22484530.094 10 0 59158 35100.00000 0 -11114302.897 7902432.273 -21542098.545 10 0 59158 36000.00000 0 -13662607.031 7499742.694 -20180705.476 10 0 59158 36900.00000 0 -16042820.547 7307229.497 -18426932.300 10 0 59158 37800.00000 0 -18192831.475 7301674.968 -16314978.537 10 0 59158 38700.00000 0 -20057790.151 7449340.335 -13885988.340 10 0 59158 39600.00000 0 -21592213.746 7707572.565 -11187242.907 10 0 59158 40500.00000 0 -22761710.336 8026797.117 -8271234.868 10 0 59158 41400.00000 0 -23544251.574 8352811.378 -5194643.015 10 0 59158 42300.00000 0 -23930942.046 8629281.047 -2017227.748 10 0 59158 43200.00000 0 -23926254.546 8800333.311 1199331.004 10 0 59158 44100.00000 0 -23547722.886 8813136.861 4392630.584 10 0 59158 45000.00000 0 -22825106.545 8620359.550 7500753.697 10 0 59158 45900.00000 0 -21799063.453 8182399.916 10463464.424 10 0 59158 46800.00000 0 -20519387.480 7469298.453 13223369.210 10 0 59158 47700.00000 0 -19042885.268 6462248.174 15727020.753 10 0 59158 48600.00000 0 -17430981.449 5154640.778 17925944.061 10 0 59158 49500.00000 0 -15747152.458 3552604.114 19777565.766 10 0 59158 50400.00000 0 -14054295.982 1675008.000 21246029.616 10 0 59158 51300.00000 0 -12412144.985 -447062.914 22302883.391 10 0 59158 52200.00000 0 -10874833.358 -2771348.486 22927624.852 10 0 59158 53100.00000 0 -9488713.781 -5245922.817 23108096.862 10 0 59158 54000.00000 0 -8290517.763 -7811113.388 22840724.473 10 0 59158 54900.00000 0 -7305933.739 -10401751.762 22130589.433 10 0 59158 55800.00000 0 -6548661.939 -12949664.145 20991340.319 10 0 59158 56700.00000 0 -6019985.112 -15386300.187 19444939.351 10 0 59158 57600.00000 0 -5708872.962 -17645392.246 17521249.708 10 0 59158 58500.00000 0 -5592616.114 -19665535.608 15257470.124 10 0 59158 59400.00000 0 -5637963.340 -21392582.925 12697426.382 10 0 59158 60300.00000 0 -5802714.664 -22781753.309 9890732.086 10 0 59158 61200.00000 0 -6037703.664 -23799367.726 6891834.003 10 0 59158 62100.00000 0 -6289085.527 -24424137.619 3758959.634 10 0 59158 63000.00000 0 -6500834.116 -24647951.996 552987.043 10 0 59158 63900.00000 0 -6617341.984 -24476129.085 -2663741.000 10 0 59158 64800.00000 0 -6586012.444 -23927121.230 -5828635.148 10 0 59158 65700.00000 0 -6359732.666 -23031684.827 -8880085.428 10 0 59158 66600.00000 0 -5899121.587 -21831549.895 -11758670.082 10 0 59158 67500.00000 0 -5174455.699 -20377645.310 -14408322.704 10 0 59158 68400.00000 0 -4167189.429 -18727954.683 -16777433.844 10 0 59158 69300.00000 0 -2871004.083 -16945093.702 -18819864.579 10 0 59158 70200.00000 0 -1292339.429 -15093711.513 -20495851.590 10 0 59158 71100.00000 0 549615.967 -13237826.098 -21772785.621 10 0 59158 72000.00000 0 2623476.375 -11438206.207 -22625847.900 10 0 59158 72900.00000 0 4886730.274 -9749910.126 -23038492.203 10 0 59158 73800.00000 0 7287287.239 -8220084.547 -23002763.442 10 0 59158 74700.00000 0 9765435.912 -6886115.596 -22519446.982 10 0 59158 75600.00000 0 12256131.495 -5774208.772 -21598046.294 10 0 59158 76500.00000 0 14691517.380 -4898456.235 -20256589.941 10 0 59158 77400.00000 0 17003575.652 -4260429.189 -18521272.171 10 0 59158 78300.00000 0 19126796.057 -3849310.755 -16425934.666 10 0 59158 79200.00000 0 21000752.262 -3642561.978 -14011399.954 10 0 59158 80100.00000 0 22572478.187 -3607091.123 -11324669.958 10 0 59158 81000.00000 0 23798545.767 -3700875.256 -8418005.694 10 0 59158 81900.00000 0 24646758.048 -3874964.199 -5347906.358 10 0 59158 82800.00000 0 25097387.759 -4075780.978 -2174008.132 10 0 59158 83700.00000 0 25143910.634 -4247620.586 1042075.607 10 0 59158 84600.00000 0 24793203.953 -4335240.788 4237949.908 10 0 59158 85500.00000 0 24065203.227 -4286435.086 7351646.278 99